"Pseudo-MPEC" for IVSD1Ik

Created 2021 Sep 19 23:08:46 UT using Find_Orb

Click here for an explanation of pseudo-MPECs

 
 Astrometry: 
     IVSD1Ik !C2021 08 30A*!tg!=*W5fYAstrometryY`8#5AA/)=eQ#\ql%o'y(tA)kK:ZksW84
     IVSD1Ik !C2021 08 309,fAa8PjUpA3,mY1`1oi_6L*;gdredacted;a:$mZthBfs2BC.UOW84
     IVSD1Ik !C2021 08 30UhaqNLfq2WxpLe[3Y9ZngI6Tvv?0+nesU6!\#sn4qd`6clickyNIW84
     IVSD1Ik !C2021 08 308b=1S4-00@ou`B*PCf-4AgS\#Rd'ELD%8R9yb#\r!v:_M7LZ.`VuW84
     IVSD1Ik !C2021 08 3098SFZE(XJhere@0=@L@F/l!+``2w2form+MI[@;4@qHeyi@k`:=ZW84
     IVSD1Ik !C2021 08 30:L;2f!Dhk#oexplanationn^icL0ZNO4/?.YHq:bxfWd-2bKT.NIW84
     IVSD1Ik !C2021 08 30Vg9@m#TBRBQKP++RVyn.?KLL85QlwSG/s:f(6JADUL)-](VkG[rNW84

Station data:
(W84) Cerro Tololo-DECam  (S30.169597 W70.806420)  Chile. 4.0-m f/2.87
   reflector + CCD.

Orbital elements:  IVSD1Ik
   Perihelion 2021 Aug 12.420105 +/- 43.8747 TT = 10:04:57 (JD 2459438.920105)
Epoch 2021 Aug 30.0 TT = JDT 2459456.5   Earth MOID: 0.4651   AutoNEOCP
M   4.36752874 +/- 19.083963        (J2000 ecliptic)
n   0.24843884 +/- 0.250977         Peri.  279.56195 +/- 92.612968
a   2.50604990 +/- 1.68888          Node    47.76941 +/- 47.378535
e   0.4483275 +/- 0.259199          Incl.   13.91063 +/- 8.1058190
P   3.97                   H 22.9   G  0.15   U 11.8  SR
q 1.38251857 +/- 0.326767    Q 3.62958122 +/- 108.046
From 7 observations 2021 Aug. 30 (32.9 min); mean residual 0".06
Residuals in arcseconds: 
210830 W84  .01+  .04-    210830 W84  .04+  .04-    210830 W84  .01-  .11-    
210830 W84  .06+  .01-    210830 W84  .02-  .08+    
210830 W84  .13-  .03+    210830 W84  .05+  .08+    

Ephemerides (geocentric):
Date (UTC) HH   RA              Dec         delta   r     elong  mag " sig PA
---- -- -- --  -------------   -----------  ------ ------ -----  --- ---- ---
2021 09 19 23  00 34 16.723   -34 09 25.62  .48738 1.4325 145.4 23.3  59d  29
2021 09 20 00  00 34 14.116   -34 08 29.31  .48746 1.4326 145.4 23.3  59d  29
2021 09 20 01  00 34 11.509   -34 07 32.95  .48754 1.4327 145.4 23.3  59d  29
2021 09 20 02  00 34 08.901   -34 06 36.52  .48761 1.4328 145.4 23.3  59d  29
2021 09 20 03  00 34 06.293   -34 05 40.03  .48769 1.4329 145.4 23.3  59d  29
2021 09 20 04  00 34 03.685   -34 04 43.48  .48777 1.4330 145.5 23.3  59d  29
2021 09 20 05  00 34 01.076   -34 03 46.87  .48785 1.4331 145.5 23.3  59d  29
2021 09 20 06  00 33 58.467   -34 02 50.21  .48793 1.4332 145.5 23.3  59d  29
2021 09 20 07  00 33 55.857   -34 01 53.48  .48801 1.4333 145.5 23.3  59d  29
2021 09 20 08  00 33 53.247   -34 00 56.69  .48809 1.4334 145.5 23.3  59d  29
2021 09 20 09  00 33 50.637   -33 59 59.85  .48817 1.4335 145.5 23.3  59d  29
2021 09 20 10  00 33 48.027   -33 59 02.94  .48825 1.4336 145.5 23.3  59d  29
2021 09 20 11  00 33 45.416   -33 58 05.98  .48833 1.4337 145.5 23.3  59d  29
2021 09 20 12  00 33 42.805   -33 57 08.95  .48842 1.4338 145.6 23.3  60d  29
2021 09 20 13  00 33 40.194   -33 56 11.87  .48850 1.4339 145.6 23.3  60d  29
2021 09 20 14  00 33 37.583   -33 55 14.73  .48858 1.4340 145.6 23.3  60d  29
2021 09 20 15  00 33 34.971   -33 54 17.52  .48866 1.4341 145.6 23.3  60d  29
2021 09 20 16  00 33 32.359   -33 53 20.26  .48874 1.4343 145.6 23.3  60d  29
2021 09 20 17  00 33 29.747   -33 52 22.94  .48883 1.4344 145.6 23.3  60d  29
2021 09 20 18  00 33 27.135   -33 51 25.56  .48891 1.4345 145.6 23.3  60d  29
2021 09 20 19  00 33 24.523   -33 50 28.12  .48899 1.4346 145.6 23.3  60d  29
2021 09 20 20  00 33 21.910   -33 49 30.63  .48908 1.4347 145.7 23.3  60d  29
2021 09 20 21  00 33 19.297   -33 48 33.07  .48916 1.4348 145.7 23.3  60d  29
2021 09 20 22  00 33 16.684   -33 47 35.46  .48924 1.4349 145.7 23.3  60d  29
2021 09 20 23  00 33 14.071   -33 46 37.78  .48933 1.4350 145.7 23.3  60d  29
2021 09 21 00  00 33 11.458   -33 45 40.05  .48941 1.4351 145.7 23.3  60d  29
2021 09 21 01  00 33 08.845   -33 44 42.26  .48949 1.4352 145.7 23.3  60d  29
2021 09 21 02  00 33 06.231   -33 43 44.41  .48958 1.4353 145.7 23.3  60d  29
2021 09 21 03  00 33 03.618   -33 42 46.50  .48966 1.4354 145.7 23.3  60d  29
2021 09 21 04  00 33 01.004   -33 41 48.54  .48975 1.4355 145.8 23.3  60d  29
2021 09 21 05  00 32 58.391   -33 40 50.51  .48983 1.4356 145.8 23.3  60d  29
2021 09 21 06  00 32 55.777   -33 39 52.43  .48992 1.4358 145.8 23.3  60d  29
2021 09 21 07  00 32 53.163   -33 38 54.29  .49001 1.4359 145.8 23.3  60d  29
2021 09 21 08  00 32 50.550   -33 37 56.09  .49009 1.4360 145.8 23.3  60d  29
2021 09 21 09  00 32 47.936   -33 36 57.83  .49018 1.4361 145.8 23.3  60d  29
2021 09 21 10  00 32 45.322   -33 35 59.52  .49026 1.4362 145.8 23.3  60d  29
2021 09 21 11  00 32 42.708   -33 35 01.15  .49035 1.4363 145.8 23.3  60d  29
2021 09 21 12  00 32 40.095   -33 34 02.72  .49044 1.4364 145.8 23.3  60d  29
2021 09 21 13  00 32 37.481   -33 33 04.23  .49053 1.4365 145.9 23.3  60d  29
2021 09 21 14  00 32 34.867   -33 32 05.68  .49061 1.4366 145.9 23.3  60d  29
2021 09 21 15  00 32 32.254   -33 31 07.08  .49070 1.4367 145.9 23.3  60d  29
2021 09 21 16  00 32 29.640   -33 30 08.42  .49079 1.4368 145.9 23.3  60d  29
2021 09 21 17  00 32 27.027   -33 29 09.70  .49088 1.4369 145.9 23.3  60d  29
2021 09 21 18  00 32 24.413   -33 28 10.92  .49097 1.4371 145.9 23.3  60d  29
2021 09 21 19  00 32 21.800   -33 27 12.09  .49105 1.4372 145.9 23.3  60d  29
2021 09 21 20  00 32 19.187   -33 26 13.20  .49114 1.4373 145.9 23.3  60d  29
2021 09 21 21  00 32 16.574   -33 25 14.25  .49123 1.4374 145.9 23.3  60d  29
2021 09 21 22  00 32 13.961   -33 24 15.25  .49132 1.4375 146.0 23.3  60d  29